Mojave, CA

10:13 PM PDT on August 22, 2017 (GMT -0700)
Mojave

Weather History for KMHV - December, 2013

Change the Weather History Date:

Wednesday, December 4, 2013

  Actual Average Record
Temperature  
Mean Temperature 37 °F -  
Max Temperature 44 °F 60 °F 76 °F (1977)
Min Temperature 30 °F 34 °F 24 °F (1968)
Degree Days  
Heating Degree Days 28    
Moisture  
Dew Point 15 °F    
Average Humidity 42    
Maximum Humidity 60    
Minimum Humidity 25    
Precipitation  
Precipitation 0.00 in - - ()
Sea Level Pressure  
Sea Level Pressure 29.90 in    
Wind  
Wind Speed 15 mph (NW)    
Max Wind Speed 37 mph    
Max Gust Speed 52 mph    
Visibility 10 miles    
Events      
Averages and records for this station are not official NWS values.
T = Trace of Precipitation, MM = Missing Value Source: NWS Daily Summary

Daily Weather History Graph

Daily Weather History Graph

Search for Another Location

Airport or City:

Trip Planner

Search our weather history database for the weather conditions in past years. The results will help you decide how hot, cold, wet, or windy it might be!

Date:

Astronomy

Dec. 04, 2013 Rise Set
Actual Time 6:45 AM PST 4:40 PM PST
Civil Twilight 6:17 AM PST 5:08 PM PST
Nautical Twilight 5:45 AM PST 5:39 PM PST
Astronomical Twilight 5:15 AM PST 6:10 PM PST
Moon 8:19 AM PST (12/4) 6:54 PM PST (12/4)
Length of Visible Light 10h 51m
Length of Day
9h 55m
Waxing Crescent, 5% of the Moon is Illuminated
Dec 4
Waxing Crescent
Dec 9
First Quarter
Dec 17
Full
Dec 25
Last Quarter
Jan 1
New

Hourly Weather History & Observations

Time (PST) Temp. Windchill Dew Point Humidity Pressure Visibility Wind Dir Wind Speed Gust Speed Precip Events Conditions
12:15 AM 37.4 °F 23.8 °F 24.8 °F 60% 29.73 in 10.0 mi WNW 36.8 mph 51.8 mph N/A   Clear
12:35 AM 37.4 °F 25.9 °F 23.0 °F 56% 29.75 in 10.0 mi WNW 25.3 mph - N/A   Clear
12:55 AM 37.4 °F 26.9 °F 23.0 °F 56% 29.76 in 10.0 mi West 20.7 mph - N/A   Clear
1:15 AM 37.4 °F 26.4 °F 23.0 °F 56% 29.77 in 10.0 mi West 23.0 mph - N/A   Clear
1:35 AM 35.6 °F 25.2 °F 23.0 °F 60% 29.77 in 10.0 mi West 18.4 mph - N/A   Clear
1:55 AM 35.6 °F 24.0 °F 23.0 °F 60% 29.77 in 10.0 mi West 23.0 mph 27.6 mph N/A   Clear
2:15 AM 35.6 °F 25.2 °F 19.4 °F 52% 29.76 in 10.0 mi West 18.4 mph 44.9 mph N/A   Clear
2:35 AM 37.4 °F 25.0 °F 14.0 °F 38% 29.75 in 10.0 mi West 29.9 mph 35.7 mph N/A   Clear
2:55 AM 37.4 °F 27.5 °F 15.8 °F 41% 29.77 in 10.0 mi West 18.4 mph 29.9 mph N/A   Clear
3:15 AM 37.4 °F 26.9 °F 10.4 °F 33% 29.76 in 10.0 mi West 20.7 mph 35.7 mph N/A   Clear
3:35 AM 35.6 °F 23.7 °F 15.8 °F 44% 29.77 in 10.0 mi West 24.2 mph 29.9 mph N/A   Clear
3:55 AM 35.6 °F 24.0 °F 15.8 °F 44% 29.77 in 10.0 mi West 23.0 mph 28.8 mph N/A   Clear
4:15 AM 37.4 °F 25.4 °F 14.0 °F 38% 29.77 in 10.0 mi WNW 27.6 mph 35.7 mph N/A   Clear
4:35 AM 35.6 °F 25.5 °F 15.8 °F 44% 29.80 in 10.0 mi NW 17.3 mph 25.3 mph N/A   Clear
4:55 AM 35.6 °F 26.6 °F 14.0 °F 41% 29.81 in 10.0 mi WNW 13.8 mph 20.7 mph N/A   Clear
5:15 AM 35.6 °F 26.2 °F 14.0 °F 41% 29.82 in 10.0 mi WNW 15.0 mph 21.9 mph N/A   Clear
5:35 AM 37.4 °F 27.2 °F 12.2 °F 36% 29.82 in 10.0 mi NW 19.6 mph 29.9 mph N/A   Clear
5:55 AM 37.4 °F 27.8 °F 12.2 °F 36% 29.84 in 10.0 mi NW 17.3 mph 23.0 mph N/A   Clear
6:15 AM 35.6 °F 30.7 °F 10.4 °F 35% 29.85 in 10.0 mi NW 5.8 mph - N/A   Clear
6:35 AM 37.4 °F 30.8 °F 14.0 °F 38% 29.87 in 10.0 mi West 9.2 mph - N/A   Clear
6:55 AM 35.6 °F 27.5 °F 14.0 °F 41% 29.88 in 10.0 mi West 11.5 mph - N/A   Clear
7:15 AM 35.6 °F 29.2 °F 14.0 °F 41% 29.90 in 10.0 mi West 8.1 mph - N/A   Clear
7:35 AM 37.4 °F 31.4 °F 15.8 °F 41% 29.91 in 10.0 mi West 8.1 mph - N/A   Clear
7:55 AM 39.2 °F - 15.8 °F 39% 29.93 in 10.0 mi Calm Calm - N/A   Clear
8:15 AM 39.2 °F 35.0 °F 15.8 °F 39% 29.93 in 10.0 mi East 5.8 mph - N/A   Clear
8:35 AM 39.2 °F 33.0 °F 15.8 °F 39% 29.95 in 10.0 mi East 9.2 mph - N/A   Clear
8:55 AM 39.2 °F 35.9 °F 15.8 °F 39% 29.96 in 10.0 mi ESE 4.6 mph - N/A   Clear
9:15 AM 39.2 °F 34.2 °F 14.0 °F 36% 29.96 in 10.0 mi East 6.9 mph - N/A   Clear
9:35 AM 39.2 °F - 14.0 °F 36% 29.98 in 10.0 mi Calm Calm - N/A   Clear
9:55 AM 39.2 °F - 14.0 °F 36% 29.98 in 10.0 mi Calm Calm - N/A   Clear
10:15 AM 42.8 °F - 14.0 °F 31% 29.98 in 10.0 mi Calm Calm - N/A   Clear
10:35 AM 41.0 °F 34.7 °F 10.4 °F 29% 29.98 in 10.0 mi NE 10.4 mph - N/A   Clear
10:55 AM 41.0 °F 34.7 °F 10.4 °F 29% 29.98 in 10.0 mi NNE 10.4 mph - N/A   Clear
11:15 AM 41.0 °F 35.2 °F 12.2 °F 31% 29.97 in 10.0 mi ENE 9.2 mph - N/A   Clear
11:35 AM 41.0 °F 37.1 °F 12.2 °F 31% 29.96 in 10.0 mi ENE 5.8 mph - N/A   Clear
11:55 AM 42.8 °F 38.6 °F 10.4 °F 27% 29.95 in 10.0 mi NE 6.9 mph - N/A   Clear
12:15 PM 41.0 °F - 10.4 °F 29% 29.94 in 10.0 mi Calm Calm - N/A   Clear
12:35 PM 44.6 °F 40.7 °F 10.4 °F 25% 29.93 in 10.0 mi ESE 6.9 mph - N/A   Clear
12:55 PM 42.8 °F - 10.4 °F 27% 29.92 in 10.0 mi Calm Calm - N/A   Clear
1:15 PM 42.8 °F 39.3 °F 10.4 °F 27% 29.92 in 10.0 mi East 5.8 mph - N/A   Clear
1:35 PM 42.8 °F 40.1 °F 10.4 °F 27% 29.91 in 10.0 mi East 4.6 mph - N/A   Clear
1:55 PM 42.8 °F 40.1 °F 10.4 °F 27% 29.91 in 10.0 mi NE 4.6 mph - N/A   Clear
2:15 PM 44.6 °F 42.2 °F 10.4 °F 25% 29.91 in 10.0 mi East 4.6 mph - N/A   Clear
2:35 PM 44.6 °F 41.4 °F 10.4 °F 25% 29.91 in 10.0 mi East 5.8 mph - N/A   Clear
2:55 PM 44.6 °F 42.2 °F 10.4 °F 25% 29.91 in 10.0 mi SE 4.6 mph - N/A   Clear
3:15 PM 44.6 °F - 10.4 °F 25% 29.91 in 10.0 mi Calm Calm - N/A   Clear
3:35 PM 44.6 °F 43.1 °F 10.4 °F 25% 29.91 in 10.0 mi SE 3.5 mph - N/A   Clear
3:55 PM 44.6 °F 43.1 °F 12.2 °F 27% 29.91 in 10.0 mi South 3.5 mph - N/A   Clear
4:15 PM 42.8 °F 41.1 °F 12.2 °F 29% 29.91 in 10.0 mi SE 3.5 mph - N/A   Clear
4:35 PM 41.0 °F - 19.4 °F 42% 29.91 in 10.0 mi Calm Calm - N/A   Clear
4:55 PM 39.2 °F 33.6 °F 23.0 °F 52% 29.92 in 10.0 mi WNW 8.1 mph - N/A   Clear
5:15 PM 39.2 °F 33.6 °F 21.2 °F 49% 29.92 in 10.0 mi WNW 8.1 mph - N/A   Clear
5:35 PM 37.4 °F 32.1 °F 21.2 °F 52% 29.92 in 10.0 mi WNW 6.9 mph - N/A   Clear
5:55 PM 37.4 °F 33.8 °F 19.4 °F 48% 29.92 in 10.0 mi West 4.6 mph - N/A   Clear
6:15 PM 37.4 °F 33.8 °F 21.2 °F 52% 29.93 in 10.0 mi West 4.6 mph - N/A   Clear
6:35 PM 35.6 °F - 19.4 °F 52% 29.93 in 10.0 mi Calm Calm - N/A   Clear
6:55 PM 35.6 °F - 19.4 °F 52% 29.93 in 10.0 mi Calm Calm - N/A   Clear
7:15 PM 33.8 °F 28.6 °F 19.4 °F 56% 29.94 in 10.0 mi NW 5.8 mph - N/A   Clear
7:35 PM 33.8 °F 27.7 °F 19.4 °F 56% 29.94 in 10.0 mi NW 6.9 mph - N/A   Clear
7:55 PM 32.0 °F 24.8 °F 19.4 °F 60% 29.94 in 10.0 mi NNW 8.1 mph - N/A   Clear
8:15 PM 33.8 °F 27.7 °F 19.4 °F 56% 29.95 in 10.0 mi NNW 6.9 mph - N/A   Clear
8:35 PM 33.8 °F 30.8 °F 17.6 °F 52% 29.96 in 10.0 mi ENE 3.5 mph - N/A   Clear
8:55 PM 33.8 °F 28.6 °F 17.6 °F 52% 29.96 in 10.0 mi NNE 5.8 mph - N/A   Clear
9:15 PM 35.6 °F 30.7 °F 15.8 °F 44% 29.97 in 10.0 mi NNW 5.8 mph - N/A   Clear
9:35 PM 33.8 °F 27.0 °F 15.8 °F 48% 29.97 in 10.0 mi NNW 8.1 mph - N/A   Clear
9:55 PM 32.0 °F 24.8 °F 15.8 °F 51% 29.97 in 10.0 mi NNW 8.1 mph - N/A   Clear
10:15 PM 32.0 °F 24.8 °F 15.8 °F 51% 29.97 in 10.0 mi NNW 8.1 mph - N/A   Clear
10:35 PM 32.0 °F 24.8 °F 15.8 °F 51% 29.97 in 10.0 mi NNW 8.1 mph - N/A   Partly Cloudy
10:55 PM 32.0 °F 24.8 °F 14.0 °F 48% 29.97 in 10.0 mi NW 8.1 mph - N/A   Scattered Clouds
11:15 PM 32.0 °F 25.6 °F 14.0 °F 48% 29.97 in 10.0 mi NNW 6.9 mph - N/A   Partly Cloudy
11:35 PM 30.2 °F 22.6 °F 14.0 °F 51% 29.97 in 10.0 mi NNW 8.1 mph - N/A   Clear
11:55 PM 30.2 °F 23.4 °F 14.0 °F 51% 29.96 in 10.0 mi NW 6.9 mph - N/A   Scattered Clouds